CZ-3C R/B, 43875

Orbit data source: Space-Track

CZ-3C R/B, 43875 is space debris in HEO originally from a launch on Mon, 24 Dec 2018 UTC launched from the Xichang Space Center, China (XSC). Debris objects in space refer to the collection of defunct objects orbiting the Earth. Examples of debris include non-operational satellites, rocket bodies, and fragments generated from explosions, collisions, or faulty payload assembly.

Loading next visibility...
Identifier
43875, 2018-110B
Orbit
HEO
Country
Flag of CNCN / PRC
Related business
Manufacturer
CALT
Mission
Spacecraft
Bus & Motor
CZ-3A STAGE 3, Unknown motor
Mass
~2,800 kg wet, ~2,800 kg dry
Launch date (UTC)
2018-12-24 (8 years ago)
Launch vehicle
Unknown
Launch site
Xichang Space Center, China (XSC)
Object type
Payload
Rocket body
Debris
Shape & HBR
Cyl + 1 Nozzle, 6.2 m
Radar Cross Section
32.704 m², Large (>1 m²)

Expand to show TLE details & history
Last TLE update: 13 hours ago

TLE from 13 hours ago
0 CZ-3C R/B
1 43875U 18110B   26206.58240863  .00022785  00000-0  15402-2 0  9998
2 43875  27.9525 178.8194 6567586  52.5690 350.7707  3.26232678 73836
Epoch: 2026-07-25T13:58Z
TLE epoch observation values (Epoch: 2026-07-25T13:58:40.105Z)
Latitude
0.0001°
Longitude
25.79432°
Altitude
1,433.617 km
Speed
9.016 km/s
True Right ascension
11h 55m 00s
True Declination
0° 00' 00"
Sunlit
Object was in daylight at epoch
Visualization orbit readout
Latitude
Unknown
Longitude
Unknown
Altitude
Unknown
Speed
Unknown
Apparent Right ascension
Unknown
Apparent Declination
Unknown
Sunlit
N/A
Visualization observer readout
Local Sidereal Time
16:22:36
Azimuth
Unknown
Elevation
Unknown
Doppler factor
Unknown
Orbital elements
Apogee altitude
25,443.618 km
Perigee altitude
214.582 km
Semi-major axis
19,207.237 km
Eccentricity
0.65676
Inclination
27.9525°
RAAN
178.8194°
Arg. of periapsis
52.569°
True anomaly
307.45587°
Mean anomaly
350.7707°
Eccentric anomaly
334.67401°
Mean motion
0.81535 °/min
Orbital period
441.53 mins
BSTAR
0.0015402
Loading maneuver chart data...
Computing Atmospheric mass density...
Loading historical data...
Loading historical data...
Loading historical data...
Loading historical data...
Loading historical data...
Loading historical data...
Loading historical data...
Other satellites on launch #110 in the year 2018 (2018-12-24 UTC)

Documentation

Showing up to 5 results
|